Powrót do katalogu

STARLINK-30274

AktywnyŁącznośćVLEO
NORAD 57672·PAYLOAD·🇺🇸 United States

Wystrzelony Aug 22, 2023 z Vandenberg Space Force Base

Loading…

Następne Przeloty (najbliższe 24 godziny)

TLE

ŚwieżeSource: CelesTrak SupGP

Epoka: Sep 14, 2026, 20:43 UTC

1 57672C 23124K   26257.86368056  .00045823  00000+0  13545-2 0  2571
2 57672  53.1585  45.7352 0001264  82.9969 344.4311 15.34353755    10

Śledź STARLINK-30274 w czasie rzeczywistym z AllMySat

Download on the App Store